Regional Weather Roundup
Issued by NWS Goodland, KS

Home | Current Version | Previous Version | Text Only | Print | Product List | Glossary Off
Versions: 1 2 3 4 5 6 7 8 9 10 11 12 13 14 15 16 17 18 19 20 21 22 23 24 25 26 27 28 29 30 31 32 33 34 35 36 37 38 39 40 41 42 43 44 45 46 47 48 49 50

000
ASUS43 KGLD 280059
RWRGLD

GOODLAND FORECAST AREA HOURLY WEATHER ROUNDUP
NATIONAL WEATHER SERVICE GOODLAND KS
700 PM MDT THU AUG 27 2015

...OFFICIAL OBSERVATIONS...

CITY           SKY/WX    TMP DP  RH WIND       PRES   REMARKS
GOODLAND KS    MOCLDY    85  57  38 N6        29.92S
HILL CITY KS   CLEAR     91  57  31 S6        29.80R
IMPERIAL NEB   CLOUDY    81  61  50 N15       29.90R
MCCOOK NEB     PTCLDY    86  57  37 W8        29.82R
AKRON CO       CLOUDY    69  62  78 NE9       30.06S
BURLINGTON CO  CLOUDY    82  49  31 W6        29.99S
LIMON CO       CLOUDY    73  51  46 NW15      30.14R
$$

...UNOFFICIAL OBSERVATIONS...

CITY           SKY/WX    TMP DP  RH WIND       PRES   REMARKS
COLBY KS       CLEAR     88  64  45 N3        29.89S
GOVE KS          N/A     90  32  12 MISG        N/A
LENORA KS        N/A     90  32  12 MISG        N/A
NORTON KS      CLEAR     81  57  44 SW6       29.79S
SHARON SPRINGS   N/A     80  62  53 SW5         N/A
TRENTON NEB      N/A     81  32  17 NW7         N/A
KIT CARSON CO    N/A     73  60  64 MISG        N/A
$$



USA.gov is the U.S. government's official web portal to all federal, state and local government web resources and services.